Regional Weather Roundup
Issued by NWS

Home | Current Version | Previous Version | Graphics & Text | Print | Product List | Glossary On
Versions: 1 2 3 4 5 6 7 8 9 10 11 12 13 14 15 16 17 18 19 20 21 22 23 24 25 26 27 28 29 30 31 32 33 34 35 36 37 38 39 40 41 42 43 44 45 46 47 48 49 50
000
ASUS43 KLSX 290507
RWRMO

WEATHER SUMMARY FOR MISSOURI
NATIONAL WEATHER SERVICE SPRINGFIELD MO
1200 AM CDT FRI APR 29 2016

NOTE: "FAIR" INDICATES FEW OR NO CLOUDS BELOW 12,000 FEET WITH NO
       SIGNIFICANT WEATHER AND/OR OBSTRUCTIONS TO VISIBILITY.
       CURRENT SKY AND/OR WEATHER CONDITIONS ARE NOT AVAILABLE FOR
       CHILLICOTHE AND FARMINGTON.

MOZ001>031-035>038-043-044-053-054-290600-
...NORTHERN AND WESTERN MISSOURI...

CITY           SKY/WX    TMP DP  RH WIND       PRES   REMARKS
KANSAS CTY INT CLOUDY    51  45  79 N7        30.08R
KANSAS C DTWN  PTCLDY    52  46  80 N7        30.07R
LEE`S SUMMIT   CLOUDY    50  46  86 N8        30.06R
ST JOSEPH      CLOUDY    51  44  77 N8        30.09R
CHILLICOTHE      N/A     53  46  77 N3        30.07S
KIRKSVILLE     CLOUDY    52  45  77 NW6       30.05R

$$
MOZ066>068-077>081-088>096-101>105-290600-
...SOUTHWEST MISSOURI...

CITY           SKY/WX    TMP DP  RH WIND       PRES   REMARKS
SPRINGFIELD    PTCLDY    59  48  67 NE5       29.98F
JOPLIN         CLOUDY    58  50  75 NE6       29.98F

$$
MOZ032>034-039>042-045>050-055>058-069>072-290600-
...CENTRAL MISSOURI...

CITY           SKY/WX    TMP DP  RH WIND       PRES   REMARKS
COLUMBIA       CLEAR     52  47  83 NW3       30.04R
JEFFERSON CITY CLOUDY    53  49  86 NW3       30.03S
ROLLA          CLOUDY    52  48  86 N5        30.02R
SEDALIA        CLOUDY    52  48  86 N7        30.05S
WARRENSBURG    CLOUDY    46  45  93 N5        30.05S
OSAGE BEACH    CLOUDY    54  43  66 N3        30.03S

$$
MOZ051-052-059>065-290600-
...EAST CENTRAL MISSOURI...

CITY           SKY/WX    TMP DP  RH WIND       PRES   REMARKS
ST LOUIS INTL  CLEAR     59  49  69 NW3       30.02S
SPIRIT OF STL  CLEAR     53  50  89 CALM      30.02S
ST CHARLES     CLEAR     55  52  89 CALM      30.01S

$$
MOZ072>076-082>087-097>100-106>115-290600-
...SOUTH CENTRAL AND SOUTHEAST MISSOURI...

CITY           SKY/WX    TMP DP  RH WIND       PRES   REMARKS
CAPE GIRARDEAU CLEAR     56  54  93 CALM      29.99R
FARMINGTON     CLEAR     59  50  72 N5        30.04R
POPLAR BLUFF   CLEAR     59  56  89 CALM      29.98S
WEST PLAINS    CLOUDY    54  45  71 CALM      30.01S

$$



USA.gov is the U.S. government's official web portal to all federal, state and local government web resources and services.